KB2KRJ Weather Reports


Display with metric or nautical units.
time (UTC)temp
F
wind
direction
speed
MPH
gust
MPH
rain 1hr
in
rain 24hr
in
rain mn
in
humidity
%
barometer
mb
20260906050028 63 44 0.0 0.0 0.00 0.00 0.00 100 1014.2
20260906044516 63 44 0.0 0.0 0.00 0.00 0.00 100 1014.1
20260906043012 63 44 0.0 0.0 0.00 0.00 0.00 100 1014.1
20260906041507 63 44 0.0 0.0 0.00 0.00 0.00 100 1014.1
20260906040003 63 44 0.0 1.0 0.00 0.00 0.00 100 1014.0
20260906034600 63 44 0.0 0.0 0.00 0.00 0.00 100 1014.1
20260906033103 62 44 0.0 0.0 0.00 0.00 0.00 100 1014.1
20260906031608 62 44 0.0 0.0 0.00 0.00 0.00 100 1013.9
20260906030045 63 44 0.0 0.0 0.00 0.00 0.00 100 1013.8
20260906024555 63 44 0.0 0.0 0.00 0.00 0.00 100 1013.8
20260906023043 63 44 0.0 0.0 0.00 0.00 0.00 100 1013.7
20260906021533 63 44 0.0 0.0 0.00 0.00 0.00 100 1013.7
20260906020028 63 44 0.0 0.0 0.00 0.00 0.00 100 1013.6
20260906014524 63 44 0.0 0.0 0.00 0.00 0.00 100 1013.6
20260906013019 63 44 0.0 1.0 0.00 0.00 0.00 100 1013.5
20260906011515 64 44 0.0 0.0 0.00 0.00 0.00 100 1013.2
20260906010029 64 44 0.0 0.0 0.00 0.00 0.00 100 1013.3
20260906004506 64 44 0.0 2.0 0.00 0.00 0.00 100 1013.3
20260906003002 65 44 0.0 0.0 0.00 0.00 0.00 100 1013.1
20260906001557 65 44 0.0 0.0 0.00 0.00 0.00 100 1012.9
20260906000100 65 44 0.0 0.0 0.00 0.00 0.00 100 1012.8
20260905234554 66 44 0.0 0.0 0.00 0.00 0.00 100 1012.8
20260905233045 66 44 0.0 1.0 0.00 0.00 0.00 100 1012.8
20260905231540 66 51 0.0 1.0 0.00 0.00 0.00 100 1012.6
20260905230036 67 51 0.0 0.0 0.00 0.00 0.00 1 1012.5
20260905224532 68 51 0.0 1.0 0.00 0.00 0.00 8 1012.4
20260905223028 69 51 0.0 1.0 0.00 0.00 0.00 1 1012.5
20260905221522 69 51 0.0 0.0 0.00 0.00 0.00 8 1012.4
20260905220022 70 51 0.0 0.0 0.00 0.00 0.00 100 1012.2
20260905214514 70 51 0.0 1.0 0.00 0.00 0.00 100 1012.2
20260905213010 70 51 0.0 1.0 0.00 0.00 0.00 100 1012.0
20260905211513 70 51 0.0 0.0 0.00 0.00 0.00 100 1012.0
20260905210001 69 51 0.0 0.0 0.00 0.00 0.00 100 1011.9
20260905204605 69 51 0.0 0.0 0.00 0.00 0.00 100 1011.9
20260905203059 69 51 0.0 1.0 0.00 0.00 0.00 100 1011.7
20260905201553 69 51 0.0 0.0 0.00 0.00 0.00 15 1011.5
20260905200045 70 51 0.0 1.0 0.00 0.00 0.00 51 1011.8
20260905194539 72 360 0.0 10.0 0.00 0.00 0.00 62 1011.7
20260905193037 74 61 0.0 3.0 0.00 0.00 0.00 61 1011.3
20260905191530 73 25 2.0 6.0 0.00 0.00 0.00 60 1011.3
20260905190026 73 30 0.0 1.0 0.00 0.00 0.00 58 1011.3
20260905184522 72 43 0.0 7.0 0.00 0.00 0.00 60 1011.3
20260905183029 72 34 0.0 3.0 0.00 0.00 0.00 60 1011.4
20260905181513 72 13 0.0 3.0 0.00 0.00 0.00 59 1011.4
20260905180007 72 33 1.0 5.0 0.00 0.00 0.00 59 1011.3
20260905174504 72 17 1.0 4.0 0.00 0.00 0.00 59 1011.4
20260905173105 73 14 0.0 0.0 0.00 0.00 0.00 58 1011.3
20260905171556 74 88 0.0 3.0 0.00 0.00 0.00 61 1011.4
20260905170051 75 9 0.0 5.0 0.00 0.00 0.00 60 1011.4
20260905164547 74 337 1.0 4.0 0.00 0.00 0.00 61 1011.5
20260905163042 75 355 0.0 1.0 0.00 0.00 0.00 60 1011.4
20260905161538 73 31 0.0 4.0 0.00 0.00 0.00 60 1011.7
20260905160035 72 350 0.0 3.0 0.00 0.00 0.00 60 1011.7
20260905154529 72 185 0.0 5.0 0.00 0.00 0.00 59 1011.7
20260905153024 72 53 0.0 3.0 0.00 0.00 0.00 57 1011.8
20260905151520 72 98 0.0 6.0 0.00 0.00 0.00 59 1011.9
20260905150017 72 348 1.0 5.0 0.00 0.00 0.00 58 1012.0
20260905144512 72 54 0.0 3.0 0.00 0.00 0.00 51 1011.9
20260905143007 70 21 0.0 5.0 0.00 0.00 0.00 53 1011.8
20260905141511 70 19 0.0 4.0 0.00 0.00 0.00 52 1011.7
20260905140059 69 17 0.0 5.0 0.00 0.00 0.00 48 1011.8
20260905134600 69 36 0.0 5.0 0.00 0.00 0.00 47 1011.9
20260905133056 69 351 0.0 4.0 0.00 0.00 0.00 39 1012.1
20260905131547 69 24 0.0 6.0 0.00 0.00 0.00 22 1012.1
20260905130041 68 52 0.0 1.0 0.00 0.00 0.00 4 1012.1
20260905124541 67 40 0.0 2.0 0.00 0.00 0.00 100 1012.1
20260905123032 66 21 0.0 0.0 0.00 0.00 0.00 100 1011.9
20260905121528 65 21 0.0 0.0 0.00 0.00 0.00 100 1011.9
20260905120026 0 0.0 0.0 0.00 0.00 0.00 1011.9
20260905114519 0 0.0 0.0 0.00 0.00 0.00 1011.8
20260905113019 0 0.0 0.0 0.00 0.00 0.00 1011.6
20260905111512 0 0.0 0.0 0.00 0.00 0.00 1011.3
20260905110006 0 0.0 0.0 0.00 0.00 0.00 1011.2
20260905104503 0 0.0 0.0 0.00 0.00 0.00 1011.0
20260905103058 0 0.0 0.0 0.00 0.00 0.00 1010.9
20260905101604 64 46 0.0 0.0 0.00 0.00 0.00 100 1010.6
20260905100047 64 46 0.0 0.0 0.00 0.00 0.00 100 1010.6
20260905094542 64 46 0.0 2.0 0.00 0.00 0.00 100 1010.5
20260905093038 64 44 0.0 0.0 0.00 0.00 0.00 100 1010.4
20260905091532 64 44 0.0 0.0 0.00 0.00 0.00 100 1010.5
20260905090032 63 44 0.0 0.0 0.00 0.00 0.00 100 1010.5
20260905084525 64 44 0.0 3.0 0.00 0.00 0.00 100 1010.6
20260905083024 64 23 0.0 0.0 0.00 0.00 0.00 100 1010.5
20260905081516 64 23 0.0 0.0 0.00 0.00 0.00 100 1010.7
20260905080012 64 23 0.0 1.0 0.00 0.00 0.00 100 1010.7
20260905074512 64 23 0.0 1.0 0.00 0.00 0.00 100 1010.8
20260905073003 64 23 0.0 0.0 0.00 0.00 0.00 100 1010.9
20260905071558 64 23 0.0 0.0 0.00 0.00 0.00 2 1011.0
20260905070104 64 23 0.0 1.0 0.00 0.00 0.00 4 1011.1
20260905064550 64 23 0.0 2.0 0.00 0.00 0.00 4 1011.2
20260905063055 64 23 0.0 1.0 0.00 0.00 0.00 4 1011.3
20260905061541 64 23 0.0 1.0 0.00 0.00 0.00 5 1011.3
20260905060037 64 23 0.0 4.0 0.00 0.00 0.00 6 1011.4
20260905054536 64 24 0.0 4.0 0.00 0.00 0.00 2 1011.5
20260905053028 63 19 0.0 3.0 0.00 0.00 0.00 100 1011.6
20260905051525 63 17 0.0 0.0 0.00 0.00 0.00 100 1011.7